Albert J Bourg — WV8069 — position and weather

sailwx.info

Track history (hours):
 
Tides and Currents Weather Stations Pressure Air Temp Water Temp Dewpoint Dewpoint Depression Visibility Wind Speed Wind Dir Waves Ship Positions

Albert J Bourg

Owner: OMEGA PROTEIN INC., Moss Point, MS. More information available from US FCC via Universal Licensing System and Coast Guard Vessel Documentation Center.

Last reported at 2017-Oct-18 05:00 UTC. Time now 2017-Oct-18 05:24 UTC.
Position N 29°49' W 092°08'.

Length 49 m; draft 3 m.

Type: Fishing. MMSI: 367088240.

Date/timePositionNaut miles runAvg speedWind from/ knotsBaromVisibWave heightAir tempDewpointWater temp
2017-Oct-18 05:00N 29°49' W 092°08'0 0.0
2017-Oct-18 04:30N 29°49' W 092°08'0 0.0
2017-Oct-18 04:00N 29°49' W 092°08'0 0.0
2017-Oct-18 03:30N 29°49' W 092°08'0 0.0
2017-Oct-18 03:01N 29°49' W 092°08'0 0.0
2017-Oct-18 02:30N 29°49' W 092°08'0 0.0
2017-Oct-18 02:00N 29°49' W 092°08'0 0.0
2017-Oct-18 01:30N 29°49' W 092°08'0 0.0
2017-Oct-18 01:01N 29°49' W 092°08'0 0.0
2017-Oct-18 00:30N 29°49' W 092°08'0 0.0
2017-Oct-18 00:00N 29°49' W 092°08'0 0.0
2017-Oct-17 23:30N 29°49' W 092°08'0 0.0
2017-Oct-17 23:00N 29°49' W 092°08'0 0.0
2017-Oct-17 22:30N 29°49' W 092°08'0 0.0
2017-Oct-17 22:00N 29°49' W 092°08'0 0.0
2017-Oct-17 21:30N 29°49' W 092°08'0 0.0
2017-Oct-17 21:00N 29°49' W 092°08'0 0.0
2017-Oct-17 20:30N 29°49' W 092°08'0 0.0
2017-Oct-17 20:00N 29°49' W 092°08'0 0.0
2017-Oct-17 19:30N 29°49' W 092°08'0 0.0
2017-Oct-17 19:00N 29°49' W 092°08'0 0.0
2017-Oct-17 18:30N 29°49' W 092°08'0 0.0
2017-Oct-17 18:00N 29°49' W 092°08'0 0.0
2017-Oct-17 17:30N 29°49' W 092°08'0 0.0
2017-Oct-17 17:00N 29°49' W 092°08'0 0.0
2017-Oct-17 16:30N 29°49' W 092°08'0 0.0
2017-Oct-17 16:00N 29°49' W 092°08'0 0.0
2017-Oct-17 15:30N 29°49' W 092°08'0 0.0
2017-Oct-17 15:00N 29°49' W 092°08'0 0.0
2017-Oct-17 14:30N 29°49' W 092°08'0 0.0
2017-Oct-17 14:00N 29°49' W 092°08'0 0.0
2017-Oct-17 13:30N 29°49' W 092°08'0 0.0
2017-Oct-17 13:00N 29°49' W 092°08'0 0.0
2017-Oct-17 12:30N 29°49' W 092°08'0 0.0
2017-Oct-17 12:00N 29°49' W 092°08'0 0.0
2017-Oct-17 11:30N 29°49' W 092°08'0 0.0
2017-Oct-17 11:00N 29°49' W 092°08'0 0.0
2017-Oct-17 10:30N 29°49' W 092°08'0 0.0
2017-Oct-17 10:00N 29°49' W 092°08'0 0.0
2017-Oct-17 09:30N 29°49' W 092°08'0 0.0
2017-Oct-17 09:00N 29°49' W 092°08'0 0.0
2017-Oct-17 08:30N 29°49' W 092°08'0 0.0
2017-Oct-17 08:00N 29°49' W 092°08'0 0.0
2017-Oct-17 07:30N 29°49' W 092°08'0 0.0
2017-Oct-17 07:00N 29°49' W 092°08'0 0.0
2017-Oct-17 06:30N 29°49' W 092°08'0 0.0
2017-Oct-17 06:00N 29°49' W 092°08'0 0.0
2017-Oct-17 05:30N 29°49' W 092°08'0 0.0
2017-Oct-17 05:00N 29°49' W 092°08'0 0.0
2017-Oct-17 04:30N 29°49' W 092°08'0 0.0
2017-Oct-17 04:00N 29°49' W 092°08'0 0.0
2017-Oct-17 03:30N 29°49' W 092°08'0 0.0
2017-Oct-17 03:00N 29°49' W 092°08'0 0.0
2017-Oct-17 02:30N 29°49' W 092°08'0 0.0
2017-Oct-17 02:00N 29°49' W 092°08'0 0.0
2017-Oct-17 01:30N 29°49' W 092°08'0 0.0
2017-Oct-17 01:00N 29°49' W 092°08'0 0.0
2017-Oct-17 00:30N 29°49' W 092°08'0 0.0
2017-Oct-17 00:00N 29°49' W 092°08'0 0.0
2017-Oct-16 23:30N 29°49' W 092°08'0 0.0
2017-Oct-16 23:00N 29°49' W 092°08'0 0.0
2017-Oct-16 22:30N 29°49' W 092°08'0 0.0
2017-Oct-16 22:00N 29°49' W 092°08'0 0.0
2017-Oct-16 21:30N 29°49' W 092°08'0 0.0
2017-Oct-16 21:00N 29°49' W 092°08'0 0.0
2017-Oct-16 20:30N 29°49' W 092°08'0 0.0
2017-Oct-16 20:00N 29°49' W 092°08'0 0.0
2017-Oct-16 19:30N 29°49' W 092°08'1 2.6
2017-Oct-16 19:00N 29°48' W 092°08'4 7.6
2017-Oct-16 18:30N 29°46' W 092°12'5 9.2
2017-Oct-16 18:00N 29°42' W 092°15'8 0.5
2017-Oct-16 01:14N 29°34' W 092°18'5 9.1
2017-Oct-16 00:42N 29°38' W 092°16'2 9.4
2017-Oct-16 00:30N 29°40' W 092°15'5 9.3
2017-Oct-16 00:00N 29°45' W 092°13'4 8.9
2017-Oct-15 23:30N 29°47' W 092°09'3 5.1
2017-Oct-15 23:00N 29°49' W 092°08'0 0.0
2017-Oct-15 22:30N 29°49' W 092°08'0 0.0
2017-Oct-15 22:00N 29°49' W 092°08'0 0.0
2017-Oct-15 21:30N 29°49' W 092°08'0 0.0
2017-Oct-15 21:00N 29°49' W 092°08'0 0.0
2017-Oct-15 20:30N 29°49' W 092°08'0 0.0
2017-Oct-15 20:00N 29°49' W 092°08'0 0.0
2017-Oct-15 19:30N 29°49' W 092°08'0 0.0
2017-Oct-15 19:00N 29°49' W 092°08'0 0.0
2017-Oct-15 18:30N 29°49' W 092°08'0 0.0
2017-Oct-15 18:00N 29°49' W 092°08'0 0.0
2017-Oct-15 17:30N 29°49' W 092°08'0 0.0
2017-Oct-15 17:00N 29°49' W 092°08'0 0.0
2017-Oct-15 16:30N 29°49' W 092°08'0 0.0
2017-Oct-15 16:00N 29°49' W 092°08'0 0.0
2017-Oct-15 15:30N 29°49' W 092°08'0 0.0
2017-Oct-15 15:00N 29°49' W 092°08'0 0.0
2017-Oct-15 14:00N 29°49' W 092°08'0 0.0
2017-Oct-15 13:30N 29°49' W 092°08'0 0.0
2017-Oct-15 13:00N 29°49' W 092°08'0 0.0
2017-Oct-15 12:30N 29°49' W 092°08'0 0.0
2017-Oct-15 12:00N 29°49' W 092°08'0 0.0
2017-Oct-15 11:30N 29°49' W 092°08'0 0.0
2017-Oct-15 11:00N 29°49' W 092°08'0 0.0
2017-Oct-15 10:30N 29°49' W 092°08'0 0.0
2017-Oct-15 10:00N 29°49' W 092°08'0 0.0
2017-Oct-15 09:30N 29°49' W 092°08'0 0.0
2017-Oct-15 09:00N 29°49' W 092°08'0 0.0
2017-Oct-15 08:30N 29°49' W 092°08'0 0.0
2017-Oct-15 08:00N 29°49' W 092°08'0 0.0
2017-Oct-15 07:30N 29°49' W 092°08'0 0.0
2017-Oct-15 07:00N 29°49' W 092°08'0 0.0
2017-Oct-15 06:30N 29°49' W 092°08'0 0.0
2017-Oct-15 06:00N 29°49' W 092°08'0 0.0
2017-Oct-15 05:30N 29°49' W 092°08'0 0.0
2017-Oct-15 05:00N 29°49' W 092°08'0 0.0
2017-Oct-15 04:30N 29°49' W 092°08'0 0.0
2017-Oct-15 04:00N 29°49' W 092°08'0 0.0
2017-Oct-15 03:30N 29°49' W 092°08'0 0.0
2017-Oct-15 03:00N 29°49' W 092°08'0 0.0
2017-Oct-15 02:30N 29°49' W 092°08'0 0.0
2017-Oct-15 02:00N 29°49' W 092°08'0 0.0
2017-Oct-15 01:30N 29°49' W 092°08'0 0.0
2017-Oct-15 01:00N 29°49' W 092°08'0 0.0
2017-Oct-15 00:30N 29°49' W 092°08'0 0.0
2017-Oct-15 00:00N 29°49' W 092°08'0 0.0
2017-Oct-14 23:30N 29°49' W 092°08'0 0.0
2017-Oct-14 23:00N 29°49' W 092°08'0 0.0
2017-Oct-14 22:30N 29°49' W 092°08'0 0.0
2017-Oct-14 22:00N 29°49' W 092°08'0 0.0
2017-Oct-14 21:30N 29°49' W 092°08'0 0.0
2017-Oct-14 21:00N 29°49' W 092°08'0 0.0
2017-Oct-14 20:30N 29°49' W 092°08'0 0.0
2017-Oct-14 20:00N 29°49' W 092°08'0 0.0
2017-Oct-14 19:30N 29°49' W 092°08'0 0.0
2017-Oct-14 19:00N 29°49' W 092°08'0 0.0
2017-Oct-14 18:30N 29°49' W 092°08'0 0.0
2017-Oct-14 18:00N 29°49' W 092°08'0 0.0
2017-Oct-14 17:30N 29°49' W 092°08'0 0.0
2017-Oct-14 17:00N 29°49' W 092°08'0 0.0
2017-Oct-14 16:16N 29°49' W 092°08'0 0.0
2017-Oct-14 16:00N 29°49' W 092°08'0 0.0
2017-Oct-14 15:30N 29°49' W 092°08'0 0.0
2017-Oct-14 15:00N 29°49' W 092°08'0 0.0
2017-Oct-14 14:30N 29°49' W 092°08'0 0.0
2017-Oct-14 14:00N 29°49' W 092°08'0 0.0
2017-Oct-14 13:30N 29°49' W 092°08'0 0.0
2017-Oct-14 13:00N 29°49' W 092°08'0 0.0
2017-Oct-14 12:30N 29°49' W 092°08'0 0.0
2017-Oct-14 12:00N 29°49' W 092°08'0 0.0
2017-Oct-14 11:30N 29°49' W 092°08'0 0.0
2017-Oct-14 11:00N 29°49' W 092°08'0 0.0
2017-Oct-14 10:30N 29°49' W 092°08'0 0.0
2017-Oct-14 10:00N 29°49' W 092°08'0 0.0
2017-Oct-14 09:30N 29°49' W 092°08'0 0.0
2017-Oct-14 09:00N 29°49' W 092°08'0 0.0
2017-Oct-14 08:30N 29°49' W 092°08'0 0.0
2017-Oct-14 08:00N 29°49' W 092°08'0 0.0
2017-Oct-14 07:30N 29°49' W 092°08'0 0.0
2017-Oct-14 07:00N 29°49' W 092°08'0 0.0
2017-Oct-14 06:30N 29°49' W 092°08'0 0.0
2017-Oct-14 06:00N 29°49' W 092°08'0 0.0
2017-Oct-14 05:30N 29°49' W 092°08'0 0.0
2017-Oct-14 05:00N 29°49' W 092°08'0 0.0
2017-Oct-14 04:30N 29°49' W 092°08'0 0.0
2017-Oct-14 04:00N 29°49' W 092°08'0 0.0
2017-Oct-14 03:30N 29°49' W 092°08'2 3.2
2017-Oct-14 03:00N 29°48' W 092°08'3 6.7
2017-Oct-14 02:30N 29°46' W 092°11'5 9.3
2017-Oct-14 01:55N 29°41' W 092°15'3 0.7
2017-Oct-13 21:30N 29°38' W 092°16'4 8.3
2017-Oct-13 21:00N 29°42' W 092°15'4 8.6
2017-Oct-13 20:30N 29°46' W 092°12'4 7.3
2017-Oct-13 20:00N 29°48' W 092°08'2 3.3
2017-Oct-13 19:30N 29°49' W 092°08'0 0.0
2017-Oct-13 19:00N 29°49' W 092°08'0 0.0
2017-Oct-13 18:30N 29°49' W 092°08'0 0.0
2017-Oct-13 18:00N 29°49' W 092°08'0 0.0
2017-Oct-13 17:30N 29°49' W 092°08'0 0.0
2017-Oct-13 17:00N 29°49' W 092°08'2 3.2
2017-Oct-13 16:30N 29°48' W 092°08'4 7.4
2017-Oct-13 16:00N 29°46' W 092°12'5 9.1
2017-Oct-13 15:30N 29°42' W 092°15'14 0.9
2017-Oct-13 00:19N 29°37' W 092°00'4 7.6
2017-Oct-12 23:51N 29°40' W 092°03'2 7.0
2017-Oct-12 23:31N 29°42' W 092°04'4 7.5
2017-Oct-12 23:01N 29°45' W 092°07'4 7.5
2017-Oct-12 22:31N 29°49' W 092°08'1 1.4
2017-Oct-12 22:01N 29°49' W 092°08'0 0.0
2017-Oct-12 21:31N 29°49' W 092°08'0 0.0
2017-Oct-12 21:01N 29°49' W 092°08'0 0.0
2017-Oct-12 20:30N 29°49' W 092°08'0 0.0
2017-Oct-12 20:01N 29°49' W 092°08'0 0.0
2017-Oct-12 19:30N 29°49' W 092°08'0 0.0
2017-Oct-12 19:01N 29°49' W 092°08'0 0.0
2017-Oct-12 18:30N 29°49' W 092°08'0 0.0
2017-Oct-12 18:01N 29°49' W 092°08'0 0.0
2017-Oct-12 17:31N 29°49' W 092°08'0 0.0
2017-Oct-12 17:00N 29°49' W 092°08'0 0.0
2017-Oct-12 16:30N 29°49' W 092°08'0 0.0
2017-Oct-12 16:00N 29°49' W 092°08'0 0.0
2017-Oct-12 15:30N 29°49' W 092°08'0 0.0
2017-Oct-12 15:00N 29°49' W 092°08'1 2.9
2017-Oct-12 14:30N 29°48' W 092°08'4 7.2
2017-Oct-12 14:01N 29°46' W 092°12'5 8.5
2017-Oct-12 13:27N 29°42' W 092°15'  
2017-Oct-10 00:34N 29°41' W 092°04'0 8.1
2017-Oct-10 00:30N 29°42' W 092°04'4 8.4
2017-Oct-10 00:00N 29°45' W 092°07'3 6.4
2017-Oct-09 23:30N 29°48' W 092°08'1 2.1
2017-Oct-09 22:59N 29°49' W 092°08'0 0.0
2017-Oct-09 22:30N 29°49' W 092°08'0 0.0
2017-Oct-09 22:00N 29°49' W 092°08'0 0.0
2017-Oct-09 21:30N 29°49' W 092°08'0 0.0
2017-Oct-09 21:00N 29°49' W 092°08'0 0.0
2017-Oct-09 20:30N 29°49' W 092°08'0 0.0
2017-Oct-09 20:00N 29°49' W 092°08'0 0.0
2017-Oct-09 19:30N 29°49' W 092°08'0 0.0
2017-Oct-09 19:00N 29°49' W 092°08'0 0.0
2017-Oct-09 18:30N 29°49' W 092°08'0 0.0
2017-Oct-09 18:00N 29°49' W 092°08'0 0.0
2017-Oct-09 17:30N 29°49' W 092°08'0 0.0
2017-Oct-09 16:57N 29°49' W 092°08'0 0.0
2017-Oct-09 16:27N 29°49' W 092°08'0 0.0
2017-Oct-09 16:00N 29°49' W 092°08'0 0.0
2017-Oct-09 13:33N 29°49' W 092°08'0 0.0
2017-Oct-09 13:15N 29°49' W 092°08'0 0.0
2017-Oct-09 12:45N 29°49' W 092°08'0 0.0
2017-Oct-09 12:21N 29°49' W 092°08'0 0.0
2017-Oct-09 11:21N 29°49' W 092°08'0 0.0
2017-Oct-09 10:57N 29°49' W 092°08'0 0.0
2017-Oct-09 10:27N 29°49' W 092°08'0 0.0
2017-Oct-09 09:57N 29°49' W 092°08'0 0.0
2017-Oct-09 09:27N 29°49' W 092°08'0 0.0
2017-Oct-09 08:57N 29°49' W 092°08'0 0.0
2017-Oct-09 08:30N 29°49' W 092°08'0 0.0
2017-Oct-09 07:57N 29°49' W 092°08'0 0.0
2017-Oct-09 07:21N 29°49' W 092°08'0 0.0
2017-Oct-09 07:00N 29°49' W 092°08'0 0.0
2017-Oct-09 06:27N 29°49' W 092°08'0 0.0
2017-Oct-09 06:00N 29°49' W 092°08'0 0.0
2017-Oct-09 05:30N 29°49' W 092°08'0 0.0
2017-Oct-09 04:57N 29°49' W 092°08'0 0.0
2017-Oct-09 04:27N 29°49' W 092°08'0 0.0
2017-Oct-09 04:00N 29°49' W 092°08'0 0.0
2017-Oct-09 03:21N 29°49' W 092°08'0 0.0
2017-Oct-09 01:27N 29°49' W 092°08'0 0.0
2017-Oct-09 01:00N 29°49' W 092°08'0 0.0
2017-Oct-09 00:30N 29°49' W 092°08'0 0.0
2017-Oct-09 00:00N 29°49' W 092°08'0 0.0
2017-Oct-08 23:30N 29°49' W 092°08'0 0.0
2017-Oct-08 23:00N 29°49' W 092°08'0 0.0
2017-Oct-08 22:30N 29°49' W 092°08'0 0.0
2017-Oct-08 21:54N 29°49' W 092°08'0 0.0
2017-Oct-08 21:30N 29°49' W 092°08'0 0.0
2017-Oct-08 21:00N 29°49' W 092°08'0 0.0
2017-Oct-08 20:27N 29°49' W 092°08'0 0.0
2017-Oct-08 19:57N 29°49' W 092°08'0 0.0
2017-Oct-08 19:27N 29°49' W 092°08'0 0.0
2017-Oct-08 19:00N 29°49' W 092°08'0 0.0
2017-Oct-08 18:30N 29°49' W 092°08'0 0.0
2017-Oct-08 18:00N 29°49' W 092°08'0 0.0
2017-Oct-08 17:30N 29°49' W 092°08'0 0.0
2017-Oct-08 17:00N 29°49' W 092°08'0 0.0
2017-Oct-08 16:27N 29°49' W 092°08'0 0.0
2017-Oct-08 16:00N 29°49' W 092°08'0 0.0
2017-Oct-08 15:30N 29°49' W 092°08'0 0.0
2017-Oct-08 14:45N 29°49' W 092°08'0 0.0
2017-Oct-08 14:27N 29°49' W 092°08'0 0.0
2017-Oct-08 13:57N 29°49' W 092°08'0 0.0
2017-Oct-08 13:30N 29°49' W 092°08'0 0.0
2017-Oct-08 12:54N 29°49' W 092°08'0 0.0
2017-Oct-08 12:21N 29°49' W 092°08'0 0.0
2017-Oct-08 11:57N 29°49' W 092°08'0 0.0
2017-Oct-08 10:27N 29°49' W 092°08'0 0.0
2017-Oct-08 10:00N 29°49' W 092°08'0 0.0
2017-Oct-08 09:30N 29°49' W 092°08'0 0.0
2017-Oct-08 09:00N 29°49' W 092°08'0 0.0
2017-Oct-08 08:30N 29°49' W 092°08'0 0.0
2017-Oct-08 08:00N 29°49' W 092°08'0 0.0
2017-Oct-08 07:30N 29°49' W 092°08'0 0.0
2017-Oct-08 07:00N 29°49' W 092°08'0 0.0
2017-Oct-08 06:30N 29°49' W 092°08'0 0.0
2017-Oct-08 06:00N 29°49' W 092°08'0 0.0
2017-Oct-08 05:30N 29°49' W 092°08'  
Track history (hours):
 
Tides and Currents Weather Stations Pressure Air Temp Water Temp Dewpoint Dewpoint Depression Visibility Wind Speed Wind Dir Waves Ship Positions

Albert J Bourg

Owner: OMEGA PROTEIN INC., Moss Point, MS. More information available from US FCC via Universal Licensing System and Coast Guard Vessel Documentation Center.

Last reported at 2017-Oct-18 05:00 UTC. Time now 2017-Oct-18 05:24 UTC.
Position N 29°49' W 092°08'.

Length 49 m; draft 3 m.

Type: Fishing. MMSI: 367088240.

Date/timePositionNaut miles runAvg speedWind from/ knotsBaromVisibWave heightAir tempDewpointWater temp
2017-Oct-18 05:00N 29°49' W 092°08'0 0.0
2017-Oct-18 04:30N 29°49' W 092°08'0 0.0
2017-Oct-18 04:00N 29°49' W 092°08'0 0.0
2017-Oct-18 03:30N 29°49' W 092°08'0 0.0
2017-Oct-18 03:01N 29°49' W 092°08'0 0.0
2017-Oct-18 02:30N 29°49' W 092°08'0 0.0
2017-Oct-18 02:00N 29°49' W 092°08'0 0.0
2017-Oct-18 01:30N 29°49' W 092°08'0 0.0
2017-Oct-18 01:01N 29°49' W 092°08'0 0.0
2017-Oct-18 00:30N 29°49' W 092°08'0 0.0
2017-Oct-18 00:00N 29°49' W 092°08'0 0.0
2017-Oct-17 23:30N 29°49' W 092°08'0 0.0
2017-Oct-17 23:00N 29°49' W 092°08'0 0.0
2017-Oct-17 22:30N 29°49' W 092°08'0 0.0
2017-Oct-17 22:00N 29°49' W 092°08'0 0.0
2017-Oct-17 21:30N 29°49' W 092°08'0 0.0
2017-Oct-17 21:00N 29°49' W 092°08'0 0.0
2017-Oct-17 20:30N 29°49' W 092°08'0 0.0
2017-Oct-17 20:00N 29°49' W 092°08'0 0.0
2017-Oct-17 19:30N 29°49' W 092°08'0 0.0
2017-Oct-17 19:00N 29°49' W 092°08'0 0.0
2017-Oct-17 18:30N 29°49' W 092°08'0 0.0
2017-Oct-17 18:00N 29°49' W 092°08'0 0.0
2017-Oct-17 17:30N 29°49' W 092°08'0 0.0
2017-Oct-17 17:00N 29°49' W 092°08'0 0.0
2017-Oct-17 16:30N 29°49' W 092°08'0 0.0
2017-Oct-17 16:00N 29°49' W 092°08'0 0.0
2017-Oct-17 15:30N 29°49' W 092°08'0 0.0
2017-Oct-17 15:00N 29°49' W 092°08'0 0.0
2017-Oct-17 14:30N 29°49' W 092°08'0 0.0
2017-Oct-17 14:00N 29°49' W 092°08'0 0.0
2017-Oct-17 13:30N 29°49' W 092°08'0 0.0
2017-Oct-17 13:00N 29°49' W 092°08'0 0.0
2017-Oct-17 12:30N 29°49' W 092°08'0 0.0
2017-Oct-17 12:00N 29°49' W 092°08'0 0.0
2017-Oct-17 11:30N 29°49' W 092°08'0 0.0
2017-Oct-17 11:00N 29°49' W 092°08'0 0.0
2017-Oct-17 10:30N 29°49' W 092°08'0 0.0
2017-Oct-17 10:00N 29°49' W 092°08'0 0.0
2017-Oct-17 09:30N 29°49' W 092°08'0 0.0
2017-Oct-17 09:00N 29°49' W 092°08'0 0.0
2017-Oct-17 08:30N 29°49' W 092°08'0 0.0
2017-Oct-17 08:00N 29°49' W 092°08'0 0.0
2017-Oct-17 07:30N 29°49' W 092°08'0 0.0
2017-Oct-17 07:00N 29°49' W 092°08'0 0.0
2017-Oct-17 06:30N 29°49' W 092°08'0 0.0
2017-Oct-17 06:00N 29°49' W 092°08'0 0.0
2017-Oct-17 05:30N 29°49' W 092°08'0 0.0
2017-Oct-17 05:00N 29°49' W 092°08'0 0.0
2017-Oct-17 04:30N 29°49' W 092°08'0 0.0
2017-Oct-17 04:00N 29°49' W 092°08'0 0.0
2017-Oct-17 03:30N 29°49' W 092°08'0 0.0
2017-Oct-17 03:00N 29°49' W 092°08'0 0.0
2017-Oct-17 02:30N 29°49' W 092°08'0 0.0
2017-Oct-17 02:00N 29°49' W 092°08'0 0.0
2017-Oct-17 01:30N 29°49' W 092°08'0 0.0
2017-Oct-17 01:00N 29°49' W 092°08'0 0.0
2017-Oct-17 00:30N 29°49' W 092°08'0 0.0
2017-Oct-17 00:00N 29°49' W 092°08'0 0.0
2017-Oct-16 23:30N 29°49' W 092°08'0 0.0
2017-Oct-16 23:00N 29°49' W 092°08'0 0.0
2017-Oct-16 22:30N 29°49' W 092°08'0 0.0
2017-Oct-16 22:00N 29°49' W 092°08'0 0.0
2017-Oct-16 21:30N 29°49' W 092°08'0 0.0
2017-Oct-16 21:00N 29°49' W 092°08'0 0.0
2017-Oct-16 20:30N 29°49' W 092°08'0 0.0
2017-Oct-16 20:00N 29°49' W 092°08'0 0.0
2017-Oct-16 19:30N 29°49' W 092°08'1 2.6
2017-Oct-16 19:00N 29°48' W 092°08'4 7.6
2017-Oct-16 18:30N 29°46' W 092°12'5 9.2
2017-Oct-16 18:00N 29°42' W 092°15'8 0.5
2017-Oct-16 01:14N 29°34' W 092°18'5 9.1
2017-Oct-16 00:42N 29°38' W 092°16'2 9.4
2017-Oct-16 00:30N 29°40' W 092°15'5 9.3
2017-Oct-16 00:00N 29°45' W 092°13'4 8.9
2017-Oct-15 23:30N 29°47' W 092°09'3 5.1
2017-Oct-15 23:00N 29°49' W 092°08'0 0.0
2017-Oct-15 22:30N 29°49' W 092°08'0 0.0
2017-Oct-15 22:00N 29°49' W 092°08'0 0.0
2017-Oct-15 21:30N 29°49' W 092°08'0 0.0
2017-Oct-15 21:00N 29°49' W 092°08'0 0.0
2017-Oct-15 20:30N 29°49' W 092°08'0 0.0
2017-Oct-15 20:00N 29°49' W 092°08'0 0.0
2017-Oct-15 19:30N 29°49' W 092°08'0 0.0
2017-Oct-15 19:00N 29°49' W 092°08'0 0.0
2017-Oct-15 18:30N 29°49' W 092°08'0 0.0
2017-Oct-15 18:00N 29°49' W 092°08'0 0.0
2017-Oct-15 17:30N 29°49' W 092°08'0 0.0
2017-Oct-15 17:00N 29°49' W 092°08'0 0.0
2017-Oct-15 16:30N 29°49' W 092°08'0 0.0
2017-Oct-15 16:00N 29°49' W 092°08'0 0.0
2017-Oct-15 15:30N 29°49' W 092°08'0 0.0
2017-Oct-15 15:00N 29°49' W 092°08'0 0.0
2017-Oct-15 14:00N 29°49' W 092°08'0 0.0
2017-Oct-15 13:30N 29°49' W 092°08'0 0.0
2017-Oct-15 13:00N 29°49' W 092°08'0 0.0
2017-Oct-15 12:30N 29°49' W 092°08'0 0.0
2017-Oct-15 12:00N 29°49' W 092°08'0 0.0
2017-Oct-15 11:30N 29°49' W 092°08'0 0.0
2017-Oct-15 11:00N 29°49' W 092°08'0 0.0
2017-Oct-15 10:30N 29°49' W 092°08'0 0.0
2017-Oct-15 10:00N 29°49' W 092°08'0 0.0
2017-Oct-15 09:30N 29°49' W 092°08'0 0.0
2017-Oct-15 09:00N 29°49' W 092°08'0 0.0
2017-Oct-15 08:30N 29°49' W 092°08'0 0.0
2017-Oct-15 08:00N 29°49' W 092°08'0 0.0
2017-Oct-15 07:30N 29°49' W 092°08'0 0.0
2017-Oct-15 07:00N 29°49' W 092°08'0 0.0
2017-Oct-15 06:30N 29°49' W 092°08'0 0.0
2017-Oct-15 06:00N 29°49' W 092°08'0 0.0
2017-Oct-15 05:30N 29°49' W 092°08'0 0.0
2017-Oct-15 05:00N 29°49' W 092°08'0 0.0
2017-Oct-15 04:30N 29°49' W 092°08'0 0.0
2017-Oct-15 04:00N 29°49' W 092°08'0 0.0
2017-Oct-15 03:30N 29°49' W 092°08'0 0.0
2017-Oct-15 03:00N 29°49' W 092°08'0 0.0
2017-Oct-15 02:30N 29°49' W 092°08'0 0.0
2017-Oct-15 02:00N 29°49' W 092°08'0 0.0
2017-Oct-15 01:30N 29°49' W 092°08'0 0.0
2017-Oct-15 01:00N 29°49' W 092°08'0 0.0
2017-Oct-15 00:30N 29°49' W 092°08'0 0.0
2017-Oct-15 00:00N 29°49' W 092°08'0 0.0
2017-Oct-14 23:30N 29°49' W 092°08'0 0.0
2017-Oct-14 23:00N 29°49' W 092°08'0 0.0
2017-Oct-14 22:30N 29°49' W 092°08'0 0.0
2017-Oct-14 22:00N 29°49' W 092°08'0 0.0
2017-Oct-14 21:30N 29°49' W 092°08'0 0.0
2017-Oct-14 21:00N 29°49' W 092°08'0 0.0
2017-Oct-14 20:30N 29°49' W 092°08'0 0.0
2017-Oct-14 20:00N 29°49' W 092°08'0 0.0
2017-Oct-14 19:30N 29°49' W 092°08'0 0.0
2017-Oct-14 19:00N 29°49' W 092°08'0 0.0
2017-Oct-14 18:30N 29°49' W 092°08'0 0.0
2017-Oct-14 18:00N 29°49' W 092°08'0 0.0
2017-Oct-14 17:30N 29°49' W 092°08'0 0.0
2017-Oct-14 17:00N 29°49' W 092°08'0 0.0
2017-Oct-14 16:16N 29°49' W 092°08'0 0.0
2017-Oct-14 16:00N 29°49' W 092°08'0 0.0
2017-Oct-14 15:30N 29°49' W 092°08'0 0.0
2017-Oct-14 15:00N 29°49' W 092°08'0 0.0
2017-Oct-14 14:30N 29°49' W 092°08'0 0.0
2017-Oct-14 14:00N 29°49' W 092°08'0 0.0
2017-Oct-14 13:30N 29°49' W 092°08'0 0.0
2017-Oct-14 13:00N 29°49' W 092°08'0 0.0
2017-Oct-14 12:30N 29°49' W 092°08'0 0.0
2017-Oct-14 12:00N 29°49' W 092°08'0 0.0
2017-Oct-14 11:30N 29°49' W 092°08'0 0.0
2017-Oct-14 11:00N 29°49' W 092°08'0 0.0
2017-Oct-14 10:30N 29°49' W 092°08'0 0.0
2017-Oct-14 10:00N 29°49' W 092°08'0 0.0
2017-Oct-14 09:30N 29°49' W 092°08'0 0.0
2017-Oct-14 09:00N 29°49' W 092°08'0 0.0
2017-Oct-14 08:30N 29°49' W 092°08'0 0.0
2017-Oct-14 08:00N 29°49' W 092°08'0 0.0
2017-Oct-14 07:30N 29°49' W 092°08'0 0.0
2017-Oct-14 07:00N 29°49' W 092°08'0 0.0
2017-Oct-14 06:30N 29°49' W 092°08'0 0.0
2017-Oct-14 06:00N 29°49' W 092°08'0 0.0
2017-Oct-14 05:30N 29°49' W 092°08'0 0.0
2017-Oct-14 05:00N 29°49' W 092°08'0 0.0
2017-Oct-14 04:30N 29°49' W 092°08'0 0.0
2017-Oct-14 04:00N 29°49' W 092°08'0 0.0
2017-Oct-14 03:30N 29°49' W 092°08'2 3.2
2017-Oct-14 03:00N 29°48' W 092°08'3 6.7
2017-Oct-14 02:30N 29°46' W 092°11'5 9.3
2017-Oct-14 01:55N 29°41' W 092°15'3 0.7
2017-Oct-13 21:30N 29°38' W 092°16'4 8.3
2017-Oct-13 21:00N 29°42' W 092°15'4 8.6
2017-Oct-13 20:30N 29°46' W 092°12'4 7.3
2017-Oct-13 20:00N 29°48' W 092°08'2 3.3
2017-Oct-13 19:30N 29°49' W 092°08'0 0.0
2017-Oct-13 19:00N 29°49' W 092°08'0 0.0
2017-Oct-13 18:30N 29°49' W 092°08'0 0.0
2017-Oct-13 18:00N 29°49' W 092°08'0 0.0
2017-Oct-13 17:30N 29°49' W 092°08'0 0.0
2017-Oct-13 17:00N 29°49' W 092°08'2 3.2
2017-Oct-13 16:30N 29°48' W 092°08'4 7.4
2017-Oct-13 16:00N 29°46' W 092°12'5 9.1
2017-Oct-13 15:30N 29°42' W 092°15'14 0.9
2017-Oct-13 00:19N 29°37' W 092°00'4 7.6
2017-Oct-12 23:51N 29°40' W 092°03'2 7.0
2017-Oct-12 23:31N 29°42' W 092°04'4 7.5
2017-Oct-12 23:01N 29°45' W 092°07'4 7.5
2017-Oct-12 22:31N 29°49' W 092°08'1 1.4
2017-Oct-12 22:01N 29°49' W 092°08'0 0.0
2017-Oct-12 21:31N 29°49' W 092°08'0 0.0
2017-Oct-12 21:01N 29°49' W 092°08'0 0.0
2017-Oct-12 20:30N 29°49' W 092°08'0 0.0
2017-Oct-12 20:01N 29°49' W 092°08'0 0.0
2017-Oct-12 19:30N 29°49' W 092°08'0 0.0
2017-Oct-12 19:01N 29°49' W 092°08'0 0.0
2017-Oct-12 18:30N 29°49' W 092°08'0 0.0
2017-Oct-12 18:01N 29°49' W 092°08'0 0.0
2017-Oct-12 17:31N 29°49' W 092°08'0 0.0
2017-Oct-12 17:00N 29°49' W 092°08'0 0.0
2017-Oct-12 16:30N 29°49' W 092°08'0 0.0
2017-Oct-12 16:00N 29°49' W 092°08'0 0.0
2017-Oct-12 15:30N 29°49' W 092°08'0 0.0
2017-Oct-12 15:00N 29°49' W 092°08'1 2.9
2017-Oct-12 14:30N 29°48' W 092°08'4 7.2
2017-Oct-12 14:01N 29°46' W 092°12'5 8.5
2017-Oct-12 13:27N 29°42' W 092°15'  
2017-Oct-10 00:34N 29°41' W 092°04'0 8.1
2017-Oct-10 00:30N 29°42' W 092°04'4 8.4
2017-Oct-10 00:00N 29°45' W 092°07'3 6.4
2017-Oct-09 23:30N 29°48' W 092°08'1 2.1
2017-Oct-09 22:59N 29°49' W 092°08'0 0.0
2017-Oct-09 22:30N 29°49' W 092°08'0 0.0
2017-Oct-09 22:00N 29°49' W 092°08'0 0.0
2017-Oct-09 21:30N 29°49' W 092°08'0 0.0
2017-Oct-09 21:00N 29°49' W 092°08'0 0.0
2017-Oct-09 20:30N 29°49' W 092°08'0 0.0
2017-Oct-09 20:00N 29°49' W 092°08'0 0.0
2017-Oct-09 19:30N 29°49' W 092°08'0 0.0
2017-Oct-09 19:00N 29°49' W 092°08'0 0.0
2017-Oct-09 18:30N 29°49' W 092°08'0 0.0
2017-Oct-09 18:00N 29°49' W 092°08'0 0.0
2017-Oct-09 17:30N 29°49' W 092°08'0 0.0
2017-Oct-09 16:57N 29°49' W 092°08'0 0.0
2017-Oct-09 16:27N 29°49' W 092°08'0 0.0
2017-Oct-09 16:00N 29°49' W 092°08'0 0.0
2017-Oct-09 13:33N 29°49' W 092°08'0 0.0
2017-Oct-09 13:15N 29°49' W 092°08'0 0.0
2017-Oct-09 12:45N 29°49' W 092°08'0 0.0
2017-Oct-09 12:21N 29°49' W 092°08'0 0.0
2017-Oct-09 11:21N 29°49' W 092°08'0 0.0
2017-Oct-09 10:57N 29°49' W 092°08'0 0.0
2017-Oct-09 10:27N 29°49' W 092°08'0 0.0
2017-Oct-09 09:57N 29°49' W 092°08'0 0.0
2017-Oct-09 09:27N 29°49' W 092°08'0 0.0
2017-Oct-09 08:57N 29°49' W 092°08'0 0.0
2017-Oct-09 08:30N 29°49' W 092°08'0 0.0
2017-Oct-09 07:57N 29°49' W 092°08'0 0.0
2017-Oct-09 07:21N 29°49' W 092°08'0 0.0
2017-Oct-09 07:00N 29°49' W 092°08'0 0.0
2017-Oct-09 06:27N 29°49' W 092°08'0 0.0
2017-Oct-09 06:00N 29°49' W 092°08'0 0.0
2017-Oct-09 05:30N 29°49' W 092°08'0 0.0
2017-Oct-09 04:57N 29°49' W 092°08'0 0.0
2017-Oct-09 04:27N 29°49' W 092°08'0 0.0
2017-Oct-09 04:00N 29°49' W 092°08'0 0.0
2017-Oct-09 03:21N 29°49' W 092°08'0 0.0
2017-Oct-09 01:27N 29°49' W 092°08'0 0.0
2017-Oct-09 01:00N 29°49' W 092°08'0 0.0
2017-Oct-09 00:30N 29°49' W 092°08'0 0.0
2017-Oct-09 00:00N 29°49' W 092°08'0 0.0
2017-Oct-08 23:30N 29°49' W 092°08'0 0.0
2017-Oct-08 23:00N 29°49' W 092°08'0 0.0
2017-Oct-08 22:30N 29°49' W 092°08'0 0.0
2017-Oct-08 21:54N 29°49' W 092°08'0 0.0
2017-Oct-08 21:30N 29°49' W 092°08'0 0.0
2017-Oct-08 21:00N 29°49' W 092°08'0 0.0
2017-Oct-08 20:27N 29°49' W 092°08'0 0.0
2017-Oct-08 19:57N 29°49' W 092°08'0 0.0
2017-Oct-08 19:27N 29°49' W 092°08'0 0.0
2017-Oct-08 19:00N 29°49' W 092°08'0 0.0
2017-Oct-08 18:30N 29°49' W 092°08'0 0.0
2017-Oct-08 18:00N 29°49' W 092°08'0 0.0
2017-Oct-08 17:30N 29°49' W 092°08'0 0.0
2017-Oct-08 17:00N 29°49' W 092°08'0 0.0
2017-Oct-08 16:27N 29°49' W 092°08'0 0.0
2017-Oct-08 16:00N 29°49' W 092°08'0 0.0
2017-Oct-08 15:30N 29°49' W 092°08'0 0.0
2017-Oct-08 14:45N 29°49' W 092°08'0 0.0
2017-Oct-08 14:27N 29°49' W 092°08'0 0.0
2017-Oct-08 13:57N 29°49' W 092°08'0 0.0
2017-Oct-08 13:30N 29°49' W 092°08'0 0.0
2017-Oct-08 12:54N 29°49' W 092°08'0 0.0
2017-Oct-08 12:21N 29°49' W 092°08'0 0.0
2017-Oct-08 11:57N 29°49' W 092°08'0 0.0
2017-Oct-08 10:27N 29°49' W 092°08'0 0.0
2017-Oct-08 10:00N 29°49' W 092°08'0 0.0
2017-Oct-08 09:30N 29°49' W 092°08'0 0.0
2017-Oct-08 09:00N 29°49' W 092°08'0 0.0
2017-Oct-08 08:30N 29°49' W 092°08'0 0.0
2017-Oct-08 08:00N 29°49' W 092°08'0 0.0
2017-Oct-08 07:30N 29°49' W 092°08'0 0.0
2017-Oct-08 07:00N 29°49' W 092°08'0 0.0
2017-Oct-08 06:30N 29°49' W 092°08'0 0.0
2017-Oct-08 06:00N 29°49' W 092°08'0 0.0
2017-Oct-08 05:30N 29°49' W 092°08'  

Dump ship's entire track history